Wind_Speed
3 3 3 3 3 3 3 3 4 4 5 7 9 11 11 12 12 11 10 10 9 9 8 8 8 8 9 9 8 8 7 7 7 6 6 5 5 5 6 6 6 6 7 7 7 7 6 5 4
5 5 5 5 5 5 5 5 5 5 4 6 7 9 11 12 12 11 11 11 10 10 10 10 9 9 9 9 9 8 7 7 7 7 7 6 6 6 6 6 7 7 6 6 6 6 6 5 4
7 8 8 8 8 7 6 7 7 5 5 5 6 8 11 13 13 12 12 12 11 12 12 11 10 10 10 9 9 9 8 8 8 8 7 7 8 8 8 8 8 8 7 8 8 7 6 6 5
10 10 10 11 11 9 9 10 10 7 6 7 7 8 11 13 15 14 13 13 13 12 12 11 11 10 10 10 10 9 9 9 9 9 9 9 9 10 10 10 10 10 9 9 9 9 8 8 7
12 12 12 12 13 12 12 11 10 9 8 7 8 8 10 13 15 15 15 15 14 14 13 12 11 10 10 10 10 10 10 10 10 10 10 10 11 11 12 12 13 12 12 11 11 10 10 10 9
15 14 14 14 15 15 15 14 13 12 11 9 9 10 11 13 15 15 16 16 15 15 14 13 12 12 12 12 12 12 12 12 11 11 12 12 12 13 14 14 14 14 14 14 14 13 12 11 11
17 16 15 16 17 17 17 16 16 15 13 12 11 11 12 14 16 17 18 18 17 17 16 15 14 14 14 13 13 13 13 13 13 13 13 13 13 14 15 15 15 16 16 16 15 15 15 14 13
19 18 17 18 19 19 19 18 18 16 15 14 14 14 14 16 18 19 20 19 19 19 19 17 16 16 16 15 15 15 15 15 15 15 15 16 16 16 16 16 16 17 17 18 18 17 17 16 16
22 20 18 19 21 21 21 20 19 19 18 17 17 16 17 18 20 22 23 22 21 20 20 20 19 19 18 17 17 18 18 17 17 17 18 18 18 19 19 19 19 19 19 19 20 20 19 18 18
24 21 19 22 24 24 24 23 22 22 21 20 18 18 19 21 22 23 24 24 23 22 22 22 23 22 21 20 20 20 21 21 21 21 21 22 21 21 21 21 22 22 22 22 21 21 21 20 20
26 23 22 24 26 26 26 26 26 26 24 23 21 21 21 22 24 24 25 25 24 24 24 23 24 24 23 23 23 24 24 24 24 24 25 24 24 23 24 24 24 24 24 24 24 23 22 22 21
27 24 24 25 27 27 27 28 28 28 26 25 25 24 23 24 25 25 26 25 24 24 24 24 25 26 26 27 27 27 26 26 27 27 27 27 27 26 26 26 27 26 26 26 26 25 25 25 25
27 25 25 26 27 27 28 29 30 29 27 26 25 24 25 25 26 27 26 25 24 25 24 25 25 26 27 27 28 28 27 26 27 28 28 28 28 28 27 26 27 28 28 27 27 27 27 27 28
26 24 24 24 25 27 28 28 29 28 28 27 27 27 26 25 26 26 25 24 24 25 24 25 25 25 26 27 27 28 27 27 28 27 28 29 28 27 28 28 27 28 28 28 28 28 28 29 30
22 21 20 22 23 25 26 26 27 26 26 26 26 26 27 26 25 25 25 24 24 23 23 24 25 25 25 25 26 26 27 27 27 28 27 27 27 28 27 28 28 27 28 29 29 29 29 30 30
17 17 18 20 21 22 23 23 23 22 22 22 24 25 26 25 24 25 25 24 23 23 23 24 25 25 24 24 25 25 26 27 27 26 26 26 26 28 28 29 30 29 30 29 29 30 30 30 31
14 14 15 16 18 20 21 20 19 19 19 21 23 24 26 25 25 25 25 24 24 24 23 24 24 26 26 26 27 26 27 27 27 28 28 29 30 30 30 31 31 31 30 30 31 31 31 32 32
12 12 14 15 16 17 18 17 17 17 19 21 22 24 26 26 27 24 23 23 22 23 23 24 25 27 27 27 28 28 28 29 29 30 31 32 32 32 32 33 33 33 33 32 32 32 31 32 32
10 12 13 13 14 14 13 14 15 17 19 22 24 25 27 26 25 22 21 22 21 23 24 25 26 26 27 28 29 30 30 31 32 32 32 33 33 34 34 35 35 35 34 34 33 33 33 33 33
9 10 11 12 12 13 13 14 16 18 20 22 24 24 24 22 21 19 19 20 20 21 23 25 26 27 28 29 30 31 32 33 34 34 34 34 34 35 35 36 36 36 35 35 35 34 34 34 34
10 10 10 11 11 11 12 14 15 17 18 18 19 19 18 18 16 15 15 17 19 21 22 23 25 27 28 30 32 33 33 34 34 34 35 35 35 35 35 36 36 36 36 36 36 35 35 35 35
10 11 11 11 11 11 12 13 13 14 15 14 13 14 14 13 13 13 15 17 19 21 22 23 25 27 28 30 32 33 34 34 35 35 35 36 36 36 36 35 36 36 36 36 36 36 36 36 36
10 11 12 12 12 12 12 12 11 13 13 10 10 11 10 10 12 14 15 17 18 20 22 24 25 27 28 30 31 32 33 34 35 35 36 36 36 36 36 36 36 36 36 36 35 35 35 36 36
9 10 11 10 11 10 10 10 10 11 9 8 8 7 8 9 11 12 14 16 18 20 22 24 26 28 29 30 31 32 33 34 35 36 36 37 37 37 38 38 37 37 36 36 35 35 35 35 35
8 8 8 9 9 8 8 8 9 8 7 6 6 6 7 9 11 13 15 17 19 21 24 26 27 29 30 31 32 33 34 34 35 36 36 37 37 38 38 38 38 38 37 37 37 36 36 36 36
7 6 8 9 8 7 7 8 7 7 7 7 7 8 9 10 12 14 16 18 21 23 25 27 29 30 31 32 33 34 34 35 36 36 36 37 37 37 38 38 37 38 38 38 38 37 38 38 37
5 6 7 7 6 6 6 6 7 7 8 8 9 9 11 12 14 16 19 21 23 25 27 29 30 32 33 34 34 34 35 36 36 37 37 37 37 37 37 37 38 38 38 39 39 38 39 39 39
6 7 7 6 5 5 5 6 6 7 8 9 10 11 13 14 17 19 22 24 26 28 30 31 33 34 34 35 35 35 36 37 37 37 37 37 36 36 36 37 37 37 38 39 39 40 40 41 41
5 5 5 4 5 5 5 6 7 8 9 10 12 13 15 17 19 21 24 26 28 30 32 33 34 36 36 37 37 37 37 38 37 37 36 36 36 35 35 36 36 36 37 38 39 40 41 41 42
5 5 5 5 6 6 7 7 8 9 11 13 14 15 17 19 21 24 26 28 30 32 33 35 36 37 38 38 38 38 39 38 38 37 36 36 36 36 36 36 36 36 36 37 38 38 40 41 41
Wind_Direction
308 297 287 289 289 293 298 319 334 353 13 13 18 14 9 3 360 356 349 345 344 340 334 331 331 334 336 336 338 340 340 341 343 343 339 335 331 331 334 337 340 340 342 345 348 350 353 354 359
296 288 278 273 274 285 283 287 301 326 348 5 12 4 1 358 353 348 341 336 333 328 323 321 321 324 326 327 328 328 326 326 326 326 323 320 318 315 316 319 321 322 322 326 328 331 334 331 326
297 286 276 274 276 279 280 280 284 299 324 339 354 355 352 350 349 344 339 334 329 321 317 315 316 316 317 317 317 315 314 313 312 312 309 306 305 304 303 303 305 304 305 306 307 308 314 312 306
295 287 278 272 271 270 270 271 277 281 303 318 334 343 342 342 342 339 336 334 328 320 316 314 314 314 311 310 307 306 306 306 303 301 298 296 296 296 295 294 293 292 291 292 293 292 292 296 290
293 287 280 273 268 267 267 271 281 283 288 307 318 319 328 334 335 335 331 329 327 321 318 312 311 311 308 305 302 300 300 299 296 295 292 290 291 291 289 289 289 286 284 283 282 280 278 282 278
287 285 276 269 266 265 266 271 274 274 279 296 305 310 316 324 327 330 327 323 321 319 314 309 307 306 303 300 298 295 294 294 292 292 290 289 289 288 286 284 284 284 282 281 276 272 270 271 270
281 281 274 266 264 262 264 265 264 271 279 287 295 299 309 314 319 321 323 321 318 314 309 306 306 303 299 296 293 290 289 288 288 289 291 290 290 289 287 284 282 282 281 281 277 272 269 265 264
277 274 267 258 258 258 260 260 263 267 273 282 285 290 298 306 309 312 315 315 313 310 305 301 299 295 292 290 287 285 284 283 283 285 286 286 287 286 285 283 281 280 279 280 278 274 271 267 262
272 267 260 251 251 253 258 258 261 267 273 279 284 288 293 301 304 306 309 308 305 302 298 293 291 286 286 285 281 280 280 279 279 280 281 282 282 282 281 281 279 277 277 278 277 275 273 269 262
267 261 252 247 247 248 254 258 261 264 269 275 280 285 290 296 300 301 303 302 299 296 293 289 285 282 280 280 275 275 277 276 275 276 278 279 278 279 280 279 277 276 275 276 277 276 274 270 265
263 257 248 245 246 247 249 253 258 262 264 269 275 280 286 291 294 296 296 295 295 294 292 288 285 279 277 276 274 274 274 274 274 273 275 277 276 275 276 276 275 274 273 273 273 274 273 271 268
259 253 246 243 246 248 248 251 255 260 264 269 274 279 283 285 289 291 291 290 291 292 291 288 286 283 280 276 275 275 276 273 273 272 274 277 274 271 274 275 275 273 273 272 271 272 271 270 269
257 251 245 242 245 248 250 250 254 259 264 268 273 278 282 285 288 289 291 289 289 289 288 287 285 283 281 280 280 280 279 278 277 274 276 277 276 272 271 275 274 272 272 273 273 272 269 271 270
256 251 247 245 245 247 250 252 255 259 264 268 273 277 282 285 287 290 291 291 290 287 287 287 286 286 283 279 279 283 283 285 281 282 279 279 277 275 275 275 276 276 276 276 274 273 271 271 270
254 249 246 243 243 246 250 253 257 261 266 271 277 283 286 287 289 292 294 292 291 290 293 292 291 289 284 281 283 285 286 288 289 288 285 282 281 283 283 282 280 279 278 276 273 272 272 270 269
247 242 239 239 240 243 248 253 258 265 271 277 281 285 287 289 291 292 296 293 294 296 295 295 294 295 291 288 288 287 289 292 292 290 291 291 286 286 285 284 283 284 281 276 274 273 271 269 267
239 232 231 235 239 241 248 256 264 272 278 282 287 290 291 294 294 291 295 295 296 297 299 299 297 297 294 294 294 292 292 293 293 292 291 290 289 288 286 285 284 283 280 276 275 272 269 267 264
229 228 230 235 240 246 254 263 271 277 282 288 293 295 295 296 295 293 294 294 296 299 301 301 300 300 297 296 297 296 295 295 295 293 292 290 290 288 286 285 283 282 280 277 274 270 268 266 263
230 231 233 239 245 252 259 268 276 283 290 291 293 295 297 295 293 291 292 294 298 299 300 299 300 301 300 300 301 300 299 297 296 294 292 291 290 288 285 283 282 281 278 276 273 270 267 265 262
234 238 242 249 259 261 268 277 284 291 294 291 290 292 294 292 293 292 294 297 300 304 302 300 302 303 303 303 302 301 300 299 298 295 293 292 291 289 285 283 281 280 278 275 273 270 267 265 261
246 250 253 260 266 276 282 287 292 296 296 293 290 291 294 295 298 299 299 301 304 306 305 304 307 308 307 306 304 303 301 300 299 297 294 293 291 290 287 284 282 280 278 275 273 270 267 265 261
258 262 269 276 280 289 299 302 302 303 307 305 296 294 296 298 301 301 302 303 305 306 308 308 309 309 308 306 304 302 301 300 299 297 295 293 291 290 287 285 282 280 278 276 274 271 268 264 261
270 273 275 282 288 294 304 309 311 309 308 307 300 299 298 300 305 304 304 305 307 308 310 310 310 310 310 308 306 304 302 300 298 296 294 293 292 290 288 286 283 279 277 275 273 270 267 264 261
277 280 282 289 289 297 307 312 316 314 311 312 309 309 308 306 311 311 310 310 310 311 312 313 313 313 312 311 309 306 303 301 299 297 295 293 291 289 287 285 282 279 276 274 272 269 265 263 260
280 287 291 294 293 297 302 306 319 325 323 322 318 307 308 311 313 317 316 315 316 317 318 319 318 316 315 313 311 309 306 303 301 299 297 294 291 289 287 285 282 279 276 274 271 268 265 261 258
280 289 294 295 295 297 295 300 316 327 326 323 316 311 312 317 320 322 322 322 323 323 323 322 321 319 317 315 313 310 308 306 304 301 298 296 293 289 286 284 282 279 276 273 271 268 265 261 258
283 291 295 292 291 293 295 303 306 315 315 316 316 317 320 324 326 327 328 328 328 327 327 326 324 322 320 318 315 313 311 309 307 304 301 298 295 291 287 284 282 279 276 273 270 267 264 262 259
282 294 290 286 300 301 300 308 311 312 313 317 320 324 327 327 329 330 331 331 330 330 329 327 325 324 323 321 319 317 315 313 310 307 304 301 298 294 290 287 284 280 277 274 271 268 265 262 259
281 288 292 293 301 309 306 311 313 315 317 319 323 327 329 330 331 332 333 332 331 330 329 328 327 327 326 325 323 321 319 317 315 311 307 304 300 296 293 289 286 282 279 276 272 269 266 263 259
283 289 296 300 306 310 311 316 314 314 316 320 325 329 331 332 334 335 334 334 333 332 332 331 330 329 328 327 326 324 322 320 318 315 311 307 302 299 295 292 287 284 281 277 274 270 267 264 260
Height
5916 5916 5916 5916 5916 5916 5914 5913 5913 5912 5912 5911 5911 5911 5910 5911 5911 5912 5909 5907 5906 5905 5904 5903 5902 5901 5900 5899 5898 5898 5898 5897 5897 5897 5897 5897 5897 5897 5897 5897 5897 5897 5896 5896 5896 5896 5896 5896 5896
5916 5916 5916 5916 5915 5914 5914 5913 5912 5912 5912 5911 5910 5910 5910 5910 5910 5909 5908 5907 5906 5905 5904 5902 5901 5900 5899 5898 5897 5897 5897 5896 5896 5896 5896 5896 5896 5896 5896 5896 5896 5895 5895 5895 5895 5895 5895 5895 5895
5916 5915 5916 5915 5914 5914 5913 5912 5912 5911 5911 5910 5910 5910 5910 5909 5908 5908 5907 5906 5905 5904 5903 5901 5900 5899 5898 5897 5896 5896 5895 5895 5895 5895 5894 5894 5894 5894 5894 5894 5894 5894 5894 5894 5894 5894 5894 5894 5894
5915 5915 5915 5914 5912 5912 5912 5911 5911 5910 5910 5910 5909 5909 5908 5908 5907 5906 5905 5904 5903 5902 5901 5900 5898 5897 5896 5896 5895 5895 5894 5894 5893 5893 5893 5892 5892 5892 5892 5892 5891 5892 5892 5892 5892 5892 5892 5892 5892
5913 5913 5913 5911 5910 5910 5910 5909 5909 5909 5909 5908 5908 5908 5907 5906 5906 5905 5904 5903 5902 5901 5900 5898 5897 5896 5895 5894 5894 5893 5892 5892 5891 5891 5890 5890 5890 5890 5889 5889 5889 5889 5889 5889 5889 5889 5890 5890 5890
5911 5910 5910 5909 5908 5908 5907 5907 5907 5906 5906 5906 5906 5905 5905 5905 5904 5904 5903 5902 5901 5900 5899 5897 5896 5895 5894 5893 5892 5891 5890 5890 5889 5889 5888 5888 5887 5887 5887 5886 5886 5886 5886 5886 5886 5886 5887 5887 5887
5908 5908 5907 5906 5905 5904 5905 5904 5904 5904 5904 5904 5904 5903 5903 5902 5902 5902 5901 5900 5899 5898 5897 5895 5894 5893 5892 5891 5890 5889 5888 5887 5887 5886 5885 5885 5884 5884 5884 5883 5883 5882 5882 5882 5882 5883 5883 5883 5884
5904 5905 5904 5903 5902 5901 5901 5900 5900 5901 5901 5901 5901 5901 5900 5900 5900 5899 5898 5897 5896 5895 5894 5893 5892 5890 5889 5888 5887 5886 5886 5885 5884 5883 5882 5882 5881 5881 5881 5880 5879 5879 5878 5878 5879 5879 5879 5880 5880
5899 5901 5900 5899 5898 5897 5897 5897 5897 5897 5898 5897 5898 5898 5898 5897 5897 5896 5895 5894 5893 5892 5891 5890 5888 5887 5886 5884 5884 5883 5882 5881 5880 5879 5878 5878 5878 5877 5877 5876 5876 5875 5874 5874 5874 5874 5875 5875 5876
5894 5896 5896 5894 5893 5893 5893 5893 5893 5893 5894 5894 5894 5894 5894 5894 5893 5892 5892 5890 5889 5888 5887 5885 5884 5882 5881 5880 5879 5878 5877 5876 5876 5875 5874 5873 5873 5873 5872 5872 5871 5871 5871 5870 5870 5870 5870 5870 5871
5888 5890 5890 5889 5888 5888 5889 5889 5888 5889 5890 5890 5890 5890 5890 5890 5889 5888 5887 5886 5885 5884 5882 5881 5879 5878 5876 5875 5874 5873 5872 5871 5870 5869 5869 5869 5868 5868 5867 5867 5866 5865 5865 5865 5865 5865 5865 5865 5866
5881 5883 5883 5883 5882 5883 5884 5885 5885 5885 5886 5886 5886 5886 5886 5885 5885 5884 5882 5881 5880 5878 5877 5875 5874 5872 5871 5869 5868 5866 5865 5864 5864 5864 5863 5863 5862 5862 5861 5860 5860 5859 5859 5859 5859 5859 5859 5859 5860
5874 5876 5877 5877 5878 5879 5879 5880 5881 5881 5882 5882 5882 5882 5882 5881 5880 5879 5877 5876 5875 5873 5871 5870 5868 5867 5865 5863 5861 5860 5858 5858 5857 5857 5857 5856 5855 5855 5854 5853 5853 5853 5853 5852 5852 5853 5853 5853 5854
5869 5870 5872 5873 5873 5874 5875 5876 5877 5877 5878 5879 5878 5878 5877 5877 5875 5874 5872 5871 5869 5868 5866 5864 5862 5861 5859 5857 5856 5855 5854 5853 5852 5851 5850 5849 5847 5848 5847 5846 5846 5846 5846 5846 5846 5847 5847 5848 5848
5864 5866 5867 5868 5869 5870 5872 5873 5873 5874 5875 5875 5875 5874 5873 5872 5870 5869 5867 5865 5863 5862 5860 5859 5857 5855 5853 5851 5850 5849 5848 5847 5846 5845 5844 5843 5842 5842 5841 5840 5840 5839 5839 5840 5840 5840 5840 5841 5841
5861 5862 5863 5864 5865 5866 5870 5870 5870 5871 5872 5872 5871 5870 5868 5867 5866 5864 5862 5860 5858 5857 5855 5854 5852 5851 5848 5846 5844 5844 5843 5842 5840 5838 5838 5836 5836 5836 5835 5835 5834 5833 5833 5833 5833 5832 5833 5833 5833
5859 5860 5860 5862 5863 5864 5866 5867 5867 5868 5868 5868 5867 5866 5864 5863 5861 5859 5857 5855 5854 5852 5851 5849 5848 5846 5844 5842 5840 5838 5838 5836 5834 5833 5832 5831 5830 5829 5828 5828 5827 5826 5825 5825 5825 5825 5825 5825 5826
5857 5858 5859 5860 5861 5862 5863 5865 5865 5865 5865 5864 5863 5861 5859 5858 5856 5853 5852 5851 5849 5847 5846 5844 5843 5841 5839 5837 5835 5833 5832 5830 5829 5827 5825 5824 5823 5821 5820 5819 5819 5818 5817 5817 5817 5817 5817 5818 5818
5857 5857 5858 5859 5860 5861 5861 5862 5862 5862 5861 5860 5858 5856 5855 5853 5851 5849 5848 5847 5845 5843 5841 5840 5838 5836 5834 5832 5829 5827 5825 5823 5822 5820 5818 5816 5815 5813 5812 5811 5810 5809 5809 5808 5808 5808 5808 5809 5810
5856 5857 5857 5859 5859 5859 5859 5860 5859 5858 5856 5855 5853 5852 5850 5848 5846 5845 5844 5843 5842 5839 5838 5836 5833 5831 5829 5826 5824 5821 5819 5816 5814 5812 5810 5808 5806 5804 5803 5802 5801 5800 5799 5799 5798 5799 5799 5800 5801
5856 5857 5857 5858 5857 5857 5857 5857 5856 5854 5852 5850 5848 5847 5846 5845 5843 5841 5841 5840 5839 5837 5835 5832 5829 5826 5823 5820 5817 5814 5811 5808 5806 5804 5801 5799 5797 5795 5793 5792 5791 5790 5790 5789 5789 5789 5790 5790 5791
5856 5856 5856 5856 5856 5855 5856 5854 5853 5851 5848 5846 5845 5844 5843 5842 5840 5839 5838 5837 5836 5833 5831 5828 5824 5821 5818 5814 5811 5808 5804 5801 5798 5795 5793 5790 5788 5786 5784 5782 5781 5780 5780 5779 5779 5779 5779 5781 5782
5855 5855 5855 5855 5854 5854 5853 5852 5851 5848 5846 5844 5843 5842 5841 5840 5839 5837 5836 5834 5832 5830 5827 5824 5820 5816 5813 5809 5805 5801 5797 5794 5790 5787 5784 5781 5779 5776 5774 5773 5771 5770 5769 5769 5768 5768 5769 5770 5771
5854 5854 5853 5853 5853 5853 5851 5850 5849 5846 5845 5843 5842 5841 5840 5839 5838 5835 5834 5832 5829 5826 5823 5820 5816 5811 5807 5803 5798 5794 5790 5787 5783 5779 5776 5773 5769 5766 5764 5762 5761 5760 5759 5758 5758 5758 5759 5760 5761
5853 5853 5853 5852 5851 5851 5850 5849 5848 5845 5844 5842 5841 5840 5839 5837 5836 5833 5831 5829 5826 5822 5818 5814 5810 5805 5801 5796 5792 5787 5783 5779 5774 5771 5767 5763 5760 5756 5754 5751 5750 5748 5748 5747 5747 5748 5748 5749 5751
5852 5852 5853 5852 5851 5850 5849 5848 5848 5845 5843 5842 5841 5839 5838 5836 5834 5831 5828 5825 5822 5818 5813 5809 5804 5799 5794 5789 5784 5780 5775 5770 5765 5761 5757 5753 5749 5746 5743 5740 5739 5737 5736 5736 5736 5736 5737 5738 5740
5851 5851 5851 5851 5850 5849 5848 5848 5846 5844 5843 5841 5839 5838 5835 5833 5830 5828 5824 5821 5817 5812 5808 5803 5798 5793 5788 5782 5777 5772 5766 5761 5756 5751 5746 5742 5738 5735 5732 5729 5727 5726 5724 5724 5724 5724 5725 5726 5728
5850 5850 5849 5849 5848 5847 5847 5846 5845 5843 5841 5840 5838 5835 5833 5830 5827 5824 5820 5816 5811 5807 5802 5797 5792 5786 5780 5775 5769 5763 5757 5752 5746 5741 5736 5731 5727 5724 5721 5718 5716 5714 5712 5711 5711 5712 5712 5714 5715
5849 5849 5848 5847 5847 5846 5845 5847 5844 5841 5839 5837 5835 5833 5830 5827 5824 5820 5816 5811 5806 5801 5796 5790 5785 5779 5772 5766 5760 5754 5748 5742 5736 5731 5725 5721 5717 5713 5710 5707 5704 5702 5700 5699 5698 5698 5699 5700 5702
5847 5847 5847 5847 5846 5844 5844 5846 5841 5839 5837 5835 5833 5830 5827 5823 5819 5815 5811 5806 5801 5795 5790 5784 5777 5771 5764 5758 5751 5745 5739 5733 5726 5721 5716 5711 5706 5702 5699 5695 5693 5690 5688 5687 5686 5685 5685 5686 5688